Station PTIM4 - 9099004 - Point Iroquois, MI Image indicating link to RSS feed of recent meteorological observations for station PTIM4


Conditions at PTIM4 as of
(3:18 am EDT)
0718 GMT on 04/21/2024:
     

Click on the graph icon in the table below to see a time series plot of the last five days of that observation.

5-day plot - Wind Direction Wind Direction (WDIR):WSW ( 240 deg true )
5-day plot - Wind Speed Wind Speed (WSPD): 6.0 kts
5-day plot - Wind Gust Wind Gust (GST): 14.0 kts
5-day plot - Atmospheric Pressure Atmospheric Pressure (PRES):29.91 in
5-day plot - Air Temperature Air Temperature (ATMP): 36.7 °F
5-day plot - Dew Point Dew Point (DEWP): 20.5 °F
5-day plot - Wind Chill Wind Chill (CHILL): 31.1 °F
5-day plot - Wind Speed at 10 Meters Wind Speed at 10 meters (WSPD10M): 5.8 kts
5-day plot - Wind Speed at 20 Meters Wind Speed at 20 meters (WSPD20M): 7.8 kts
5-day plot -  Wind Speed, Wind Gust and Atmospheric Pressure Combined plot of Wind Speed, Gust, and Air Pressure
NOS Water Level Observation Network Water Level
Previous observations
TIME
(EDT)
5-day plot - Wind Direction
WDIR
 
5-day plot - Wind Speed
WSPD
kts
5-day plot - Wind Gust
GST
kts
5-day plot - Wave Height
WVHT
ft
5-day plot - Dominant Wave Period
DPD
sec
5-day plot - Average Wave Period
APD
sec
5-day plot - Mean Wave Direction
MWD
 
5-day plot - Atmospheric Pressure
PRES
in
5-day plot - Pressure Tendency
PTDY
in
5-day plot - Air Temperature
ATMP
°F
5-day plot - Water Temperature
WTMP
°F
5-day plot - Dew Point
DEWP
°F
5-day plot - Salinity
SAL
psu
5-day plot - Visibility
VIS
nmi
5-day plot - Tide (above MLLW)
TIDE
ft
2024-04-21 03:12 amWSW 5.1 9.9----29.91- 36.1- 21.0---
2024-04-21 03:06 amWSW 5.1 8.0----29.91- 36.1- 21.0---
2024-04-21 03:00 amWSW 5.1 8.9----29.92-0.07 36.1- 21.2---
2024-04-21 02:54 amWSW 5.1 9.9----29.92- 36.1- 21.2---
2024-04-21 02:48 amWSW 5.1 8.0----29.92- 36.1- 21.6---
2024-04-21 02:42 amWSW 5.1 8.0----29.93- 35.8- 21.6---
2024-04-21 02:36 amWSW 4.1 8.9----29.93- 35.8- 21.6---
2024-04-21 02:30 amWSW 2.9 8.0----29.93- 35.6- 21.9---
2024-04-21 02:24 am SW 4.1 7.0----29.93- 35.4- 22.1---
2024-04-21 02:18 am SW 4.1 8.0----29.93- 35.4- 22.1---
2024-04-21 02:12 amSSW 4.1 8.0----29.93- 35.6- 22.1---
2024-04-21 02:06 am SW 2.9 9.9----29.94- 35.4- 22.1---
2024-04-21 02:00 am SW 4.1 8.9----29.94-0.07 35.4- 22.5---
2024-04-21 01:54 am SW 2.9 8.9----29.95- 35.1- 22.8---
2024-04-21 01:48 am SW 4.1 8.9----29.95- 35.1- 23.0---
2024-04-21 01:42 amSSW 2.9 7.0----29.95- 35.2- 23.0---
2024-04-21 01:36 amWSW 2.9 9.9----29.95- 35.2- 23.2---
2024-04-21 01:30 am SW 5.1 9.9----29.96- 35.4- 23.0---
2024-04-21 01:24 amWSW 4.1 8.0----29.96- 35.1- 23.0---
2024-04-21 01:18 amWSW 4.1 7.0----29.96- 34.9- 22.6---
2024-04-21 01:12 amWSW 4.1 7.0----29.96- 34.7- 22.5---
2024-04-21 01:06 am SW 2.9 8.9----29.96- 34.5- 21.9---
2024-04-21 01:00 amWSW 4.1 7.0----29.97-0.05 34.7- 21.7---
2024-04-21 12:54 amWSW 2.9 7.0----29.97- 34.7- 21.2---
2024-04-21 12:48 amWSW 4.1 8.0----29.97- 35.1- 20.8---
2024-04-21 12:42 am SW 2.9 11.1----29.97- 35.2- 20.1---
2024-04-21 12:36 amWSW 4.1 9.9----29.98- 35.6- 19.0---
2024-04-21 12:30 amWSW 4.1 8.0----29.98- 36.0- 18.7---
2024-04-21 12:24 amWSW 7.0 13.0----29.98- 36.5- 18.5---
2024-04-21 12:18 amWSW 5.1 14.0----29.98- 36.1- 18.7---
2024-04-21 12:12 amWSW 7.0 11.1----29.98- 36.3- 18.5---
2024-04-21 12:06 amWSW 5.1 9.9----29.98- 36.0- 19.0---
2024-04-21 12:00 amWSW 7.0 13.0----29.98-0.03 36.0- 19.2---
2024-04-20 11:54 pmWSW 4.1 9.9----29.99- 35.4- 19.6---
2024-04-20 11:48 pmWSW 4.1 8.9----29.99- 35.2- 19.8---
2024-04-20 11:42 pmWSW 5.1 11.1----30.00- 34.9- 20.5---
2024-04-20 11:36 pmWSW 4.1 9.9----30.00- 34.7- 21.0---
2024-04-20 11:30 pmWSW 2.9 8.9----30.00- 34.5- 21.4---
2024-04-20 11:24 pmWSW 5.1 8.9----30.00- 34.5- 21.2---
2024-04-20 11:18 pmWSW 5.1 12.0----30.00- 34.5- 21.6---
2024-04-20 11:12 pmWSW 4.1 8.9----30.01- 34.5- 21.7---
2024-04-20 11:06 pmWSW 5.1 9.9----30.01- 34.3- 22.1---
2024-04-20 11:00 pmWSW 2.9 8.9----30.01+0.00 34.2- 21.9---
2024-04-20 10:54 pmWSW 4.1 7.0----30.01- 34.2- 21.7---
2024-04-20 10:48 pm SW 2.9 6.0----30.01- 34.0- 21.6---
2024-04-20 10:42 pm SW 2.9 6.0----30.01- 34.3- 21.2---
2024-04-20 10:36 pmWSW 4.1 7.0----30.01- 34.3- 20.8---
2024-04-20 10:30 pmWSW 4.1 7.0----30.01- 34.2- 21.0---
2024-04-20 10:24 pmWSW 4.1 7.0----30.02- 34.2- 21.2---
2024-04-20 10:18 pmWSW 4.1 7.0----30.02- 34.5- 21.4---
2024-04-20 10:12 pm SW 2.9 7.0----30.02- 34.5- 21.4---
2024-04-20 10:06 pmWSW 4.1 7.0----30.02- 34.9- 21.4---
2024-04-20 10:00 pmWSW 4.1 7.0----30.02+0.01 34.9- 21.4---
2024-04-20 09:54 pmWSW 4.1 8.9----30.02- 35.1- 21.6---
2024-04-20 09:48 pmWSW 4.1 8.0----30.02- 35.1- 21.7---
2024-04-20 09:42 pmWSW 2.9 8.0----30.01- 35.6- 23.2---
2024-04-20 09:36 pm W 5.1 14.0----30.01- 36.5- 26.1---
2024-04-20 09:30 pm W 11.1 14.0----30.01- 36.7- 24.3---
2024-04-20 09:24 pm W 11.1 14.0----30.01- 36.7- 24.4---
2024-04-20 09:18 pm W 12.0 15.0----30.02- 36.7- 25.0---
2024-04-20 09:12 pm W 11.1 15.0----30.02- 36.7- 25.2---
2024-04-20 09:06 pm W 12.0 17.1----30.01- 36.9- 24.6---
2024-04-20 09:00 pm W 12.0 15.0----30.01+0.00 36.7- 25.9---
2024-04-20 08:54 pm W 11.1 14.0----30.01- 36.7- 25.3---
2024-04-20 08:48 pm W 12.0 15.0----30.01- 36.7- 24.6---
2024-04-20 08:42 pm W 13.0 17.1----30.01- 36.7- 25.2---
2024-04-20 08:36 pm W 12.0 15.0----30.01- 36.7- 27.0---
2024-04-20 08:30 pm W 12.0 15.9----30.01- 36.7- 27.5---
2024-04-20 08:24 pm W 14.0 18.1----30.01- 36.5- 26.4---
2024-04-20 08:18 pm W 12.0 17.1------ 36.7- 26.6---
2024-04-20 08:12 pm W 14.0 22.0------ 36.7- 26.4---
2024-04-20 08:06 pm W 15.9 19.0------ 36.7- 25.5---
2024-04-20 08:00 pm W 15.9 21.0----30.01+0.01 36.5-----
2024-04-20 07:54 pm W 17.1 20.0----30.00- 36.5-----
2024-04-20 07:48 pm W 15.0 20.0----30.00-------
2024-04-20 07:42 pm W 14.0 18.1----30.00-------
2024-04-20 07:36 pm W 14.0 18.1----30.01-------
2024-04-20 07:30 pm W 14.0 19.0----30.01- 36.1- 26.2---
2024-04-20 07:24 pm W 14.0 17.1----30.01- 36.1- 26.2---
2024-04-20 07:18 pm W 14.0 18.1----30.01-------
2024-04-20 07:12 pm W 14.0 18.1----30.01-------
2024-04-20 07:06 pm W 15.9 20.0----30.01-------
2024-04-20 07:00 pm W 14.0 20.0----30.01+0.01 36.1-----
2024-04-20 06:54 pm W 15.0 19.0----30.01- 36.1-----
2024-04-20 06:48 pm W 13.0 15.9----30.01- 35.8- 27.3---
2024-04-20 06:42 pm W 12.0 15.0----30.01- 35.8- 27.3---
2024-04-20 06:36 pmWNW 12.0 14.0----30.01- 35.8- 27.9---
2024-04-20 06:30 pm W 13.0 15.0----30.01- 35.6- 26.4---
2024-04-20 06:24 pm W 13.0 15.9----30.01- 35.8- 27.3---
2024-04-20 06:18 pm W 12.0 17.1----30.01- 35.6- 27.9---
2024-04-20 06:12 pm W 13.0 18.1----30.01- 35.6- 28.8---
2024-04-20 06:06 pm W 14.0 18.1----30.01- 35.1- 28.6---
2024-04-20 06:00 pm-------30.01+0.01 35.1- 27.9---
2024-04-20 05:54 pm-------30.01- 35.2- 28.2---
2024-04-20 05:48 pmWNW 15.0 17.1----30.01- 35.4- 28.0---
2024-04-20 05:42 pm W 15.0 18.1----30.00- 35.2- 27.3---
2024-04-20 05:36 pm W 15.9 20.0----30.00- 35.4- 27.7---
2024-04-20 05:30 pm W 15.0 19.0----30.00- 36.0- 27.7---
2024-04-20 05:24 pmWNW 19.0 24.1----30.00- 35.6- 26.8---
2024-04-20 05:18 pmWNW 14.0 21.0----30.00- 35.8- 28.0---
2024-04-20 05:12 pmWNW 15.9 22.0----30.00- 35.8- 27.5---
2024-04-20 05:06 pmWNW 18.1 22.0----30.00- 35.6- 26.4---
2024-04-20 05:00 pmWNW 17.1 21.0----30.00+0.02 35.8- 25.3---
2024-04-20 04:54 pmWNW 15.0 19.0----30.00- 36.1- 26.2---
2024-04-20 04:48 pmWNW 14.0 18.1----30.00-------
2024-04-20 04:42 pm W 14.0 18.1----30.00-------
2024-04-20 04:36 pm W 14.0 19.0----30.00-------
2024-04-20 04:30 pmWNW 15.0 21.0----30.00- 35.4- 27.1---
2024-04-20 04:24 pmWNW 15.0 22.0----30.00- 35.6- 27.5---
2024-04-20 04:18 pmWNW 17.1 22.9------ 35.8- 27.0---
2024-04-20 04:12 pmWNW 17.1 22.0------ 36.0- 26.6---
2024-04-20 04:06 pmWNW 18.1 22.9------ 35.8- 26.1---
2024-04-20 04:00 pm-------29.99+0.03 36.1- 25.9---
2024-04-20 03:54 pm-------29.99- 36.1- 26.8---
2024-04-20 03:48 pm W 14.0 17.1----29.99- 36.0- 26.6---
2024-04-20 03:42 pmWNW 15.9 20.0----29.99- 35.4- 27.0---
2024-04-20 03:36 pmWNW 14.0 18.1----29.99- 35.8- 28.0---
2024-04-20 03:30 pmWNW 14.0 21.0----29.99- 34.9- 28.4---
2024-04-20 03:24 pmWNW 18.1 22.9----29.99- 34.9- 28.2---
2024-04-20 03:18 pmWNW 17.1 24.1----29.99- 35.8- 27.0---
2024-04-20 03:12 pmWNW 15.9 20.0----29.99- 35.8- 26.8---
2024-04-20 03:06 pmWNW 17.1 24.1----29.99- 35.8- 26.1---
2024-04-20 03:00 pmWNW 20.0 26.0----29.99+0.03------
2024-04-20 02:54 pm W 15.9 21.0----29.99-------
2024-04-20 02:48 pmWNW 17.1 20.0----29.99- 36.3- 26.1---
2024-04-20 02:42 pmWNW 15.0 24.1----29.99- 35.8- 26.1---
2024-04-20 02:36 pmWNW 18.1 22.9----29.99- 35.8- 25.7---
2024-04-20 02:30 pmWNW 17.1 21.0------ 36.5- 26.4---
2024-04-20 02:24 pmWNW 15.0 22.0------ 36.3- 25.7---
2024-04-20 02:18 pmWNW 15.9 26.0----29.98- 36.1- 25.7---
2024-04-20 02:12 pmWNW 19.0 26.0----29.98- 36.0- 26.2---
2024-04-20 02:06 pmWNW 17.1 28.0----29.98- 36.1- 25.5---
2024-04-20 02:00 pmWNW 22.9 27.0----29.98+0.04 36.0- 24.4---
2024-04-20 01:54 pmWNW 15.9 24.1----29.98- 36.3- 25.2---
2024-04-20 01:48 pm W 17.1 21.0----29.97- 36.5- 25.9---
2024-04-20 01:42 pmWNW 18.1 22.0----29.97- 36.1- 25.5---
2024-04-20 01:36 pm W 19.0 22.0----29.97- 36.3- 25.5---
2024-04-20 01:30 pmWNW 17.1 22.0----29.97- 36.1- 26.6---
2024-04-20 01:24 pmWNW 17.1 22.0----29.97- 36.0- 25.9---
2024-04-20 01:18 pmWNW 17.1 20.0----29.97- 35.8- 28.2---
2024-04-20 01:12 pmWNW 15.9 18.1----29.97- 35.4- 29.3---
2024-04-20 01:06 pmWNW 15.0 20.0----29.97- 34.9- 29.5---
2024-04-20 01:00 pmWNW 15.0 18.1----29.97+0.04 34.5- 30.2---
2024-04-20 12:54 pm W 13.0 22.0----29.97- 33.6- 30.4---
2024-04-20 12:48 pmWNW 19.0 25.1----29.97- 32.7- 31.8---
2024-04-20 12:42 pmWNW 22.0 25.1----29.97- 33.4- 31.1---
2024-04-20 12:36 pmWNW 15.0 19.0----29.96- 36.3- 29.5---
2024-04-20 12:30 pmWNW 12.0 18.1----29.96- 35.8- 30.2---
2024-04-20 12:24 pmWNW 13.0 19.0----29.96- 35.1- 29.8---
2024-04-20 12:18 pmWNW 17.1 20.0----29.96- 34.7- 30.9---
2024-04-20 12:12 pmWNW 15.0 18.1----29.96- 34.2- 31.1---
2024-04-20 12:06 pmWNW 15.9 22.0----29.96- 35.1- 30.9---
2024-04-20 12:00 pm W 13.0 17.1----29.96+0.06 34.9- 29.7---
2024-04-20 11:54 am W 15.0 18.1----29.96- 34.7- 29.7---
2024-04-20 11:48 am W 15.0 22.0----29.96- 33.8- 31.1---
2024-04-20 11:42 am W 15.9 19.0----29.96- 34.2- 30.4---
2024-04-20 11:36 am W 15.0 21.0----29.95- 34.7- 31.8---
2024-04-20 11:30 am W 14.0 20.0----29.95- 34.3- 32.4---
2024-04-20 11:24 am W 12.0 17.1----29.95- 34.7- 31.8---
2024-04-20 11:18 am W 12.0 17.1----29.94- 34.3- 32.0---
2024-04-20 11:12 am W 17.1 24.1----29.95- 33.4- 32.0---
2024-04-20 11:06 am W 15.0 21.0----29.94- 34.3- 32.9---
2024-04-20 11:00 am W 12.0 22.0----29.94+0.05 34.7- 32.9---
2024-04-20 10:54 am W 15.9 22.0----29.93- 34.9- 32.7---
2024-04-20 10:48 am W 12.0 18.1----29.93- 35.4- 32.5---
2024-04-20 10:42 am W 12.0 19.0----29.93- 34.5- 31.8---
2024-04-20 10:36 am W 21.0 26.0----29.93- 33.8- 31.5---
2024-04-20 10:30 am W 15.9 25.1----29.93- 34.9- 32.7---
2024-04-20 10:24 am W 14.0 21.0----29.92- 35.4- 31.8---
2024-04-20 10:18 am W 12.0 19.0----29.92- 35.4- 32.9---
2024-04-20 10:12 am W 14.0 19.0----29.92- 34.5- 32.4---
2024-04-20 10:06 am W 15.0 20.0----29.92- 34.3- 32.5---
2024-04-20 10:00 amWNW 14.0 18.1----29.92+0.05 34.5- 32.7---
2024-04-20 09:54 am W 13.0 19.0----29.92- 34.5- 32.4---
2024-04-20 09:48 am W 15.9 19.0----29.92-------
2024-04-20 09:42 am W 15.9 22.9----29.92-------
2024-04-20 09:36 am W 19.0 22.9----29.91-------
2024-04-20 09:30 amWNW 15.9 20.0----29.91- 34.2- 32.7---
2024-04-20 09:24 am W 17.1 27.0----29.91- 33.8- 33.3---
2024-04-20 09:18 am W 17.1 22.9----29.91- 33.8- 33.6---
2024-04-20 09:12 am W 9.9 17.1----29.91- 33.6- 32.9---
2024-04-20 09:06 am W 8.0 11.1----29.91- 34.0- 31.8---
2024-04-20 09:00 amWSW 8.0 13.0----29.90+0.04 34.9- 30.6---
2024-04-20 08:54 am W 8.0 12.0----29.90- 34.9- 30.2---
2024-04-20 08:48 amWSW 8.0 14.0----29.90- 34.5- 30.7---
2024-04-20 08:42 amWSW 8.9 14.0----29.90- 34.5- 30.6---
2024-04-20 08:36 amWSW 8.0 13.0----29.89- 34.5- 30.4---
2024-04-20 08:30 amWSW 8.9 14.0----29.89- 34.5- 30.2---
2024-04-20 08:24 amWSW 7.0 14.0----29.89- 34.5- 30.0---
2024-04-20 08:18 amWSW 8.9 14.0----29.89- 34.3- 30.2---
2024-04-20 08:12 am W 8.9 15.9----29.89- 34.3- 30.4---
2024-04-20 08:06 amWSW 9.9 14.0----29.89- 34.3- 30.0---
2024-04-20 08:00 amWSW 7.0 12.0----29.89+0.02 34.3- 29.7---
2024-04-20 07:54 amWSW 8.0 14.0----29.89- 34.3- 29.5---
2024-04-20 07:48 amWSW 8.9 15.0----29.88- 34.5- 29.5---
2024-04-20 07:42 amWSW 7.0 12.0----29.88- 34.5- 28.9---
2024-04-20 07:36 amWSW 6.0 11.1----29.88- 34.2- 28.6---
2024-04-20 07:30 amWSW 5.1 12.0----29.88- 33.6- 29.7---
2024-04-20 07:24 amWSW 5.1 12.0----29.88- 34.2- 28.8---
2024-04-20 07:18 amWSW 7.0 12.0----29.88- 34.3- 28.6---
2024-04-20 07:12 amWSW 7.0 13.0----29.88- 34.5- 28.6---
2024-04-20 07:06 amWSW 6.0 11.1----29.88- 34.5- 28.8---
2024-04-20 07:00 amWSW 8.9 15.0----29.88+0.02 34.5- 29.3---
2024-04-20 06:54 amWSW 8.0 15.0----29.88- 34.9- 28.8---
2024-04-20 06:48 am W 8.9 20.0----29.87- 35.4- 30.2---
2024-04-20 06:42 am W 9.9 15.0----29.87- 35.8- 27.7---
2024-04-20 06:36 amWSW 12.0 17.1----29.87- 36.0- 26.4---
2024-04-20 06:30 amWSW 8.0 14.0----29.87-------
2024-04-20 06:24 am W 8.0 15.0----29.87-------
2024-04-20 06:18 am W 8.9 17.1----29.87- 36.0- 26.1---
2024-04-20 06:12 amWSW 8.0 14.0----29.86- 36.0- 25.7---
2024-04-20 06:06 amWSW 8.0 15.0----29.86- 35.8- 25.5---
2024-04-20 06:00 amWSW 8.9 15.9----29.86+0.01------
2024-04-20 05:54 am W 8.0 15.0----29.86-------
2024-04-20 05:48 amWSW 7.0 12.0----29.86- 35.6- 25.7---
2024-04-20 05:42 am W 8.0 12.0----29.86- 35.6- 26.1---
2024-04-20 05:36 amWSW 6.0 11.1----29.86- 35.4- 26.1---
2024-04-20 05:30 amWSW 5.1 11.1----29.86- 35.2- 26.8---
2024-04-20 05:24 amWSW 5.1 8.0----29.86- 34.9- 28.6---
2024-04-20 05:18 amWSW 5.1 8.9----29.86- 34.5- 29.5---
2024-04-20 05:12 amWSW 4.1 11.1----29.87- 34.7- 30.6---
2024-04-20 05:06 amWSW 7.0 12.0----29.87- 34.5- 30.6---
2024-04-20 05:00 amWSW 6.0 9.9----29.87+0.01 34.0- 30.7---
2024-04-20 04:54 amWSW 6.0 9.9----29.87- 33.6- 30.7---
2024-04-20 04:48 amWSW 5.1 11.1----29.87- 33.6- 31.1---
2024-04-20 04:42 am W 6.0 14.0----29.87- 34.0- 31.6---
2024-04-20 04:36 am W 8.9 17.1----29.87- 34.2- 31.8---
2024-04-20 04:30 am W 13.0 17.1----29.87-------
2024-04-20 04:24 amWNW 12.0 15.9----29.87-------
2024-04-20 04:18 am W 13.0 18.1----29.86- 34.2- 32.2---
2024-04-20 04:12 amWNW 12.0 14.0----29.86- 34.7- 31.8---
2024-04-20 04:06 am W 11.1 15.0----29.86- 34.9- 32.0---
2024-04-20 04:00 am-------29.86-0.01------
2024-04-20 03:54 am-------29.85-------
2024-04-20 03:48 am W 7.0 12.0----29.85- 35.8- 25.3---
2024-04-20 03:42 amWSW 8.9 13.0----29.85- 35.8- 24.8---
2024-04-20 03:36 amWSW 8.0 15.0----29.85- 36.0- 25.3---
2024-04-20 03:30 amWSW 6.0 14.0----29.85- 35.8- 25.3---
2024-04-20 03:24 amWSW 8.0 14.0----29.85- 36.0- 24.6---
2024-04-20 03:18 amWSW 7.0 12.0----29.85- 36.1- 25.2---
2024-04-20 03:12 am W 9.9 19.0----29.85- 37.0- 28.8---
2024-04-20 03:06 am W 14.0 19.0----29.85- 37.0- 29.1---
2024-04-20 03:00 am W 13.0 18.1----29.85+0.00 37.0- 28.2---
2024-04-20 02:54 am W 12.0 19.0----29.85- 37.2- 28.6---